Kosmos-2226

operational
NORAD ID: 22282 Int'l Des: 1992-092 Owner: VTSR Country: RU
LEOCIRCULAR

About Kosmos-2226

Description loading...

Live Position

Loading 3D Globe...

Upcoming Passes

Altitude History

Altitude vs Time

uPlot chart will show altitude changes over time

Two-Line Element Set

1 22282U 92092A 26061.64340988 .00000000 00000-0 13004-3 0 9996
2 22282 73.6206 248.4407 0029517 180.2353 244.2499 12.41303353503981
Epoch: Mar 2, 2026 • Age: 39 hours

Current Status

Altitude 1516.9 km
Velocity 7.11 km/s
Sub-Earth Point 70.19°N, 80.89°W
Launch Date Dec 22, 1992
Age 33.1 years
Type other

Technical Details

Classification Payload
Mass 1536.00 kg
Dry Mass 1536.00 kg
Total Mass 1536.00 kg
Length 5.80 m
Diameter 2.40 m
Span 17.80 m
Shape Cyl + 2 Pan + Ant
Manufacturer NPOPM
Bus Type KAUR-1 11F666
Phase Status In Orbit
Owner/State VTSR/RU

Large Constellations

Loading constellations...